Back to catalog

COSMOS 2570

AliveNavigationLEO
NORAD 58148·PAYLOAD·🇷🇺 Russia

Launched Oct 27, 2023 from Plesetsk Cosmodrome

Loading…

Next Passes (next 24 hours)

TLE

FreshSource: Space-Track

Epoch: Sep 14, 2026, 15:04 UTC

1 58148U 23165A   26257.62809737 -.00000059  00000-0  11643-4 0  9991
2 58148  67.1482  72.0496 0006721 267.5832  92.4483 13.96676626147120

Track COSMOS 2570 in real time with AllMySat

Download on the App Store